Weather History for KRZL - April, 2013

Change the Weather History Date:

Tuesday, April 16, 2013

  Actual Average (KVPZ) Record (KVPZ)
Temperature  
Mean Temperature 48 °F 49 °F  
Max Temperature 51 °F 60 °F 86 °F (2002)
Min Temperature 44 °F 39 °F 22 °F (2014)
Degree Days  
Heating Degree Days 18 16  
Month to date heating degree days 297  
Since 1 July heating degree days 5874  
Cooling Degree Days 0 0  
Month to date cooling degree days 0  
Year to date cooling degree days 0  
Moisture  
Dew Point 42 °F    
Average Humidity 82    
Maximum Humidity 100    
Minimum Humidity 66    
Precipitation  
Precipitation 0.49 in 0.12 in 0.95 in (2006)
Month to date precipitation 1.76  
Year to date precipitation 7.41  
Sea Level Pressure  
Sea Level Pressure 30.12 in    
Wind  
Wind Speed 6 mph (North)    
Max Wind Speed 13 mph    
Max Gust Speed -    
Visibility 9 miles    
Events Rain , Thunderstorm    
T = Trace of Precipitation, MM = Missing Value Source: NWS Daily Summary

Daily Weather History Graph

Daily Weather History Graph

Search for Another Location

Airport or City:

Trip Planner

Search our weather history database for the weather conditions in past years. The results will help you decide how hot, cold, wet, or windy it might be!

Date:

Astronomy

Apr. 16, 2013 Rise Set
Actual Time 6:07 AM CDT 7:29 PM CDT
Civil Twilight 5:39 AM CDT 7:58 PM CDT
Nautical Twilight 5:04 AM CDT 8:32 PM CDT
Astronomical Twilight 4:28 AM CDT 9:09 PM CDT
Moon 10:24 AM CDT (4/16) 12:27 AM CDT (4/16)
Length of Visible Light 14h 19m
Length of Day
13h 22m
Waxing Crescent, 33% of the Moon is Illuminated
Apr 16
Waxing Crescent
Apr 18
First Quarter
Apr 25
Full
May 2
Last Quarter
May 9
New

Hourly Weather History & Observations

Time (CDT) Temp. Windchill Dew Point Humidity Pressure Visibility Wind Dir Wind Speed Gust Speed Precip Events Conditions
12:15 AM 46.4 °F 43.5 °F 46.4 °F 100% 29.97 in 4.0 mi North 5.8 mph - 0.04 in Rain Rain
12:35 AM 46.4 °F 42.4 °F 46.4 °F 100% 29.96 in 7.0 mi North 8.1 mph - 0.04 in   Unknown
12:55 AM 46.4 °F 42.4 °F 46.4 °F 100% 29.96 in 10.0 mi North 8.1 mph - 0.04 in   Unknown
1:15 AM 46.4 °F 41.1 °F 46.4 °F 100% 29.94 in 10.0 mi NNE 11.5 mph - N/A   Unknown
1:35 AM 46.4 °F 42.9 °F 46.4 °F 100% 29.95 in 10.0 mi North 6.9 mph - N/A Rain Light Rain
1:55 AM 46.4 °F 41.5 °F 44.6 °F 93% 29.94 in 10.0 mi NNE 10.4 mph - N/A Rain , Thunderstorm Rain
2:15 AM 46.4 °F 42.9 °F 44.6 °F 93% 29.95 in 7.0 mi NNW 6.9 mph - 0.02 in Rain , Thunderstorm Rain
2:35 AM 46.4 °F 41.9 °F 44.6 °F 93% 30.01 in 2.5 mi WNW 9.2 mph - 0.21 in Thunderstorm Unknown
2:55 AM 44.6 °F - 44.6 °F 100% 30.00 in 5.0 mi Calm Calm - 0.32 in Rain , Thunderstorm Rain
3:15 AM 44.6 °F 42.2 °F 44.6 °F 100% 29.99 in 7.0 mi North 4.6 mph - 0.02 in Rain Rain
3:35 AM 44.6 °F 41.4 °F 44.6 °F 100% 29.97 in 5.0 mi North 5.8 mph - 0.05 in Rain Rain
3:55 AM 44.6 °F 42.2 °F 44.6 °F 100% 29.98 in 7.0 mi NNE 4.6 mph - 0.06 in Rain Light Rain
4:15 AM 44.6 °F - 44.6 °F 100% 29.99 in 7.0 mi Calm Calm - N/A Rain Rain
4:35 AM 44.6 °F - 44.6 °F 100% 30.00 in 5.0 mi Calm Calm - 0.03 in Rain , Thunderstorm Thunderstorms and Rain
4:55 AM 44.6 °F - 44.6 °F 100% 30.03 in 5.0 mi Calm Calm - 0.06 in Rain , Thunderstorm Light Thunderstorms and Rain
5:15 AM 44.6 °F - 44.6 °F 100% 30.03 in 5.0 mi Calm Calm - N/A   Drizzle
5:35 AM 44.6 °F 43.1 °F 44.6 °F 100% 30.03 in 5.0 mi NNW 3.5 mph - N/A   Light Drizzle
5:55 AM 46.4 °F 42.9 °F 44.6 °F 93% 30.05 in 5.0 mi NNW 6.9 mph - N/A   Mist
6:15 AM 46.4 °F 45.2 °F 44.6 °F 93% 30.06 in 5.0 mi NNW 3.5 mph - N/A   Mist
6:35 AM 44.6 °F 40.2 °F 42.8 °F 93% 30.06 in 10.0 mi North 8.1 mph - N/A   Unknown
6:55 AM 44.6 °F 39.7 °F 42.8 °F 93% 30.07 in 7.0 mi North 9.2 mph - N/A   Light Drizzle
7:15 AM 44.6 °F 40.7 °F 42.8 °F 93% 30.10 in 10.0 mi NW 6.9 mph - N/A   Unknown
7:35 AM 44.6 °F - 42.8 °F 93% 30.12 in 10.0 mi Calm Calm - N/A   Unknown
7:55 AM 44.6 °F - 42.8 °F 93% 30.11 in 10.0 mi Calm Calm - N/A   Unknown
8:15 AM 44.6 °F 42.2 °F 42.8 °F 93% 30.12 in 10.0 mi NW 4.6 mph - N/A   Unknown
8:35 AM 44.6 °F 42.2 °F 41.0 °F 87% 30.12 in 10.0 mi NNW 4.6 mph - N/A   Unknown
8:55 AM 44.6 °F - 42.8 °F 93% 30.11 in 10.0 mi Calm Calm - N/A   Unknown
9:15 AM 46.4 °F 43.5 °F 42.8 °F 87% 30.09 in 10.0 mi North 5.8 mph - N/A   Unknown
9:35 AM 46.4 °F 42.9 °F 42.8 °F 87% 30.11 in 10.0 mi NNW 6.9 mph - N/A   Unknown
9:55 AM 48.2 °F - 44.6 °F 87% 30.13 in 10.0 mi NNW 6.9 mph - N/A   Unknown
10:15 AM 48.2 °F - 42.8 °F 82% 30.12 in 10.0 mi NNE 4.6 mph - N/A   Unknown
10:35 AM 50.0 °F - 42.8 °F 76% 30.12 in 10.0 mi NNE 5.8 mph - N/A   Unknown
10:55 AM 50.0 °F - 41.0 °F 71% 30.13 in 10.0 mi NNW 4.6 mph - N/A   Unknown
11:15 AM 50.0 °F - 41.0 °F 71% 30.14 in 10.0 mi WNW 3.5 mph - N/A   Unknown
11:35 AM 50.0 °F - 41.0 °F 71% 30.16 in 10.0 mi NW 4.6 mph - N/A   Unknown
11:55 AM 50.0 °F - 41.0 °F 71% 30.19 in 10.0 mi West 5.8 mph - N/A Rain , Thunderstorm Light Thunderstorms and Rain
12:15 PM 50.0 °F - 41.0 °F 71% 30.14 in 10.0 mi North 5.8 mph - 0.01 in Rain Light Rain
12:55 PM 50.0 °F - 42.8 °F 76% 30.14 in 10.0 mi North 8.1 mph - 0.01 in Rain Light Rain
1:15 PM 50.0 °F - 41.0 °F 71% 30.16 in 10.0 mi North 5.8 mph - N/A   Unknown
1:35 PM 50.0 °F - 41.0 °F 71% 30.18 in 10.0 mi Calm Calm - N/A   Light Drizzle
1:55 PM 50.0 °F - 41.0 °F 71% 30.16 in 10.0 mi NNE 5.8 mph - N/A   Unknown
2:15 PM 50.0 °F - 41.0 °F 71% 30.16 in 10.0 mi ENE 4.6 mph - N/A   Unknown
2:35 PM 50.0 °F - 41.0 °F 71% 30.17 in 10.0 mi NNE 3.5 mph - N/A Rain Light Rain
2:55 PM 51.8 °F - 42.8 °F 71% 30.15 in 10.0 mi NNE 9.2 mph - N/A   Unknown
3:15 PM 50.0 °F - 41.0 °F 71% 30.15 in 10.0 mi North 10.4 mph - N/A   Unknown
3:35 PM 51.8 °F - 41.0 °F 67% 30.16 in 10.0 mi North 8.1 mph - N/A   Unknown
3:55 PM 51.8 °F - 41.0 °F 67% 30.15 in 10.0 mi NNE 11.5 mph - N/A   Unknown
4:15 PM 50.0 °F - 41.0 °F 71% 30.16 in 10.0 mi NNE 10.4 mph - N/A   Unknown
4:35 PM 50.0 °F - 41.0 °F 71% 30.17 in 10.0 mi NNE 9.2 mph - N/A   Unknown
4:55 PM 50.0 °F - 42.8 °F 76% 30.16 in 10.0 mi NE 9.2 mph - N/A   Unknown
5:15 PM 50.0 °F - 41.0 °F 71% 30.18 in 10.0 mi NE 8.1 mph - N/A   Unknown
5:35 PM 50.0 °F - 41.0 °F 71% 30.18 in 10.0 mi NE 11.5 mph - N/A   Unknown
5:55 PM 50.0 °F - 41.0 °F 71% 30.19 in 10.0 mi NE 9.2 mph - N/A   Unknown
6:15 PM 50.0 °F - 41.0 °F 71% 30.19 in 10.0 mi NE 5.8 mph - N/A   Unknown
6:35 PM 50.0 °F - 39.2 °F 66% 30.19 in 10.0 mi NE 12.7 mph - N/A   Unknown
6:55 PM 50.0 °F - 39.2 °F 66% 30.19 in 10.0 mi NE 8.1 mph - N/A   Unknown
7:15 PM 48.2 °F - 39.2 °F 71% 30.19 in 10.0 mi NE 11.5 mph - N/A   Unknown
7:35 PM 48.2 °F - 37.4 °F 66% 30.19 in 10.0 mi NNE 11.5 mph - N/A   Unknown
7:55 PM 46.4 °F 41.9 °F 39.2 °F 76% 30.19 in 10.0 mi NNE 9.2 mph - N/A   Unknown
8:15 PM 46.4 °F 41.1 °F 37.4 °F 71% 30.19 in 10.0 mi NNE 11.5 mph - N/A   Unknown
8:35 PM 46.4 °F 41.9 °F 37.4 °F 71% 30.21 in 10.0 mi NNE 9.2 mph - N/A   Unknown
8:55 PM 46.4 °F 41.5 °F 37.4 °F 71% 30.22 in 10.0 mi NE 10.4 mph - N/A   Unknown
9:15 PM 46.4 °F 41.5 °F 37.4 °F 71% 30.23 in 10.0 mi NE 10.4 mph - N/A   Unknown
9:35 PM 46.4 °F 41.9 °F 37.4 °F 71% 30.23 in 10.0 mi NE 9.2 mph - N/A   Unknown
9:55 PM 46.4 °F 41.9 °F 37.4 °F 71% 30.24 in 10.0 mi NE 9.2 mph - N/A   Unknown
10:15 PM 46.4 °F 40.7 °F 37.4 °F 71% 30.21 in 10.0 mi NE 12.7 mph - N/A   Unknown
10:55 PM 46.4 °F 42.9 °F 37.4 °F 71% 30.23 in 10.0 mi NNE 6.9 mph - N/A   Unknown
11:15 PM 44.6 °F 41.4 °F 37.4 °F 76% 30.24 in 10.0 mi NNE 5.8 mph - N/A   Unknown
11:35 PM 44.6 °F 39.2 °F 37.4 °F 76% 30.22 in 10.0 mi NNE 10.4 mph - N/A   Unknown
11:55 PM 44.6 °F 39.2 °F 35.6 °F 71% 30.22 in 10.0 mi NNE 10.4 mph - N/A   Unknown